Time,TemperatureF,DewpointF,PressureIn,WindDirection,WindDirectionDegrees,WindSpeedMPH,WindSpeedGustMPH,Humidity,HourlyPrecipIn,Conditions,Clouds,dailyrainin,SolarRadiationWatts/m^2,SoftwareType,DateUTC
2013-08-30 00:12:00,76.0,67.0,-100.00,SSE,161,4.0,8.0,75,0.00,,,0.00,0.000000,,2013-08-30 05:12:00,
2013-08-30 00:23:00,76.0,67.0,-100.00,SSE,161,4.0,8.0,75,0.00,,,0.00,0.000000,,2013-08-30 05:23:00,
2013-08-30 00:34:00,76.0,67.0,-100.00,SSE,161,4.0,8.0,75,0.00,,,0.00,0.000000,,2013-08-30 05:34:00,
2013-08-30 00:42:00,76.0,67.0,-100.00,SSE,161,4.0,8.0,75,0.00,,,0.00,0.000000,,2013-08-30 05:42:00,
2013-08-30 01:12:00,75.0,68.0,-100.00,SSE,162,4.0,7.0,78,0.00,,,0.00,0.000000,,2013-08-30 06:12:00,
2013-08-30 01:22:00,75.0,68.0,-100.00,SSE,162,4.0,7.0,78,0.00,,,0.00,0.000000,,2013-08-30 06:22:00,
2013-08-30 01:32:00,75.0,68.0,-100.00,SSE,162,4.0,7.0,78,0.00,,,0.00,0.000000,,2013-08-30 06:32:00,
2013-08-30 01:42:00,75.0,68.0,-100.00,SSE,162,4.0,7.0,78,0.00,,,0.00,0.000000,,2013-08-30 06:42:00,
2013-08-30 02:12:00,75.0,68.0,-100.00,South,182,6.0,10.0,80,0.00,,,0.00,,,2013-08-30 07:12:00,
2013-08-30 02:21:00,75.0,68.0,-100.00,South,182,6.0,10.0,80,0.00,,,0.00,,,2013-08-30 07:21:00,
2013-08-30 02:32:00,75.0,68.0,-100.00,South,182,6.0,10.0,80,0.00,,,0.00,,,2013-08-30 07:32:00,
2013-08-30 02:43:00,75.0,68.0,-100.00,South,182,6.0,10.0,80,0.00,,,0.00,,,2013-08-30 07:43:00,
2013-08-30 03:11:00,74.0,68.0,-100.00,South,188,6.0,12.0,82,0.00,,,0.00,,,2013-08-30 08:11:00,
2013-08-30 03:22:00,74.0,68.0,-100.00,South,188,6.0,12.0,82,0.00,,,0.00,,,2013-08-30 08:22:00,
2013-08-30 03:32:00,74.0,68.0,-100.00,South,188,6.0,12.0,82,0.00,,,0.00,,,2013-08-30 08:32:00,
2013-08-30 03:42:00,74.0,68.0,-100.00,South,188,6.0,12.0,82,0.00,,,0.00,,,2013-08-30 08:42:00,
2013-08-30 04:12:00,75.0,69.0,-100.00,SSW,200,7.0,13.0,83,0.00,,,0.00,,,2013-08-30 09:12:00,
2013-08-30 04:22:00,75.0,69.0,-100.00,SSW,200,7.0,13.0,83,0.00,,,0.00,,,2013-08-30 09:22:00,
2013-08-30 04:33:00,75.0,69.0,-100.00,SSW,200,7.0,13.0,83,0.00,,,0.00,,,2013-08-30 09:33:00,
2013-08-30 04:44:00,75.0,69.0,-100.00,SSW,200,7.0,13.0,83,0.00,,,0.00,,,2013-08-30 09:44:00,
2013-08-30 05:12:00,74.0,70.0,-100.00,SSW,195,3.0,12.0,87,0.00,,,0.00,,,2013-08-30 10:12:00,
2013-08-30 05:23:00,74.0,70.0,-100.00,SSW,195,3.0,12.0,87,0.00,,,0.00,,,2013-08-30 10:23:00,
2013-08-30 05:32:00,74.0,70.0,-100.00,SSW,195,3.0,12.0,87,0.00,,,0.00,,,2013-08-30 10:32:00,
2013-08-30 05:43:00,74.0,70.0,-100.00,SSW,195,3.0,12.0,87,0.00,,,0.00,,,2013-08-30 10:43:00,
2013-08-30 06:12:00,74.0,71.0,-100.00,SSW,201,8.0,13.0,89,0.00,,,0.00,0.000000,,2013-08-30 11:12:00,
2013-08-30 06:22:00,74.0,71.0,-100.00,SSW,201,8.0,13.0,89,0.00,,,0.00,0.000000,,2013-08-30 11:22:00,
2013-08-30 06:33:00,74.0,71.0,-100.00,SSW,201,8.0,13.0,89,0.00,,,0.00,0.000000,,2013-08-30 11:33:00,
2013-08-30 06:42:00,74.0,71.0,-100.00,SSW,201,8.0,13.0,89,0.00,,,0.00,0.000000,,2013-08-30 11:42:00,
2013-08-30 07:12:00,74.0,71.0,-100.00,SSW,206,6.0,11.0,91,0.00,,,0.00,,,2013-08-30 12:12:00,
2013-08-30 07:21:00,74.0,71.0,-100.00,SSW,206,6.0,11.0,91,0.00,,,0.00,,,2013-08-30 12:21:00,
2013-08-30 07:32:00,74.0,71.0,-100.00,SSW,206,6.0,11.0,91,0.00,,,0.00,,,2013-08-30 12:32:00,
2013-08-30 07:42:00,74.0,71.0,-100.00,SSW,206,6.0,11.0,91,0.00,,,0.00,,,2013-08-30 12:42:00,
2013-08-30 08:11:00,76.0,72.0,-100.00,SSW,205,8.0,12.0,87,0.00,,,0.00,40.000000,,2013-08-30 13:11:00,
2013-08-30 08:21:00,76.0,72.0,-100.00,SSW,205,8.0,12.0,87,0.00,,,0.00,40.000000,,2013-08-30 13:21:00,
2013-08-30 08:32:00,76.0,72.0,-100.00,SSW,205,8.0,12.0,87,0.00,,,0.00,40.000000,,2013-08-30 13:32:00,
2013-08-30 08:42:00,76.0,72.0,-100.00,SSW,205,8.0,12.0,87,0.00,,,0.00,40.000000,,2013-08-30 13:42:00,
2013-08-30 09:11:00,80.0,73.0,-100.00,SW,227,10.0,14.0,78,0.00,,,0.00,69.000000,,2013-08-30 14:11:00,
2013-08-30 09:21:00,80.0,73.0,-100.00,SW,227,10.0,14.0,78,0.00,,,0.00,69.000000,,2013-08-30 14:21:00,
2013-08-30 09:32:00,80.0,73.0,-100.00,SW,227,10.0,14.0,78,0.00,,,0.00,69.000000,,2013-08-30 14:32:00,
2013-08-30 09:42:00,80.0,73.0,-100.00,SW,227,10.0,14.0,78,0.00,,,0.00,69.000000,,2013-08-30 14:42:00,
2013-08-30 10:11:00,84.0,74.0,-100.00,West,265,10.0,16.0,71,0.00,,,-99.99,,,2013-08-30 15:11:00,
2013-08-30 10:22:00,84.0,74.0,-100.00,West,265,10.0,16.0,71,0.00,,,-99.99,,,2013-08-30 15:22:00,
2013-08-30 10:33:00,84.0,74.0,-100.00,West,265,10.0,16.0,71,0.00,,,-99.99,,,2013-08-30 15:33:00,
2013-08-30 10:43:00,84.0,74.0,-100.00,West,265,10.0,16.0,71,0.00,,,-99.99,,,2013-08-30 15:43:00,
2013-08-30 11:13:00,84.0,73.0,-100.00,WNW,291,8.0,15.0,70,0.00,,,0.00,,,2013-08-30 16:13:00,
2013-08-30 11:25:00,84.0,73.0,-100.00,WNW,291,8.0,15.0,70,0.00,,,0.00,,,2013-08-30 16:25:00,
2013-08-30 11:33:00,84.0,73.0,-100.00,WNW,291,8.0,15.0,70,0.00,,,0.00,,,2013-08-30 16:33:00,
2013-08-30 11:43:00,84.0,73.0,-100.00,WNW,291,8.0,15.0,70,0.00,,,0.00,,,2013-08-30 16:43:00,
2013-08-30 12:13:00,85.0,74.0,-100.00,West,280,7.0,13.0,69,0.00,,,0.00,,,2013-08-30 17:13:00,
2013-08-30 12:23:00,85.0,74.0,-100.00,West,280,7.0,13.0,69,0.00,,,0.00,,,2013-08-30 17:23:00,
2013-08-30 12:34:00,85.0,74.0,-100.00,West,280,7.0,13.0,69,0.00,,,0.00,,,2013-08-30 17:34:00,
2013-08-30 12:42:00,85.0,74.0,-100.00,West,280,7.0,13.0,69,0.00,,,0.00,,,2013-08-30 17:42:00,
2013-08-30 13:12:00,88.0,72.0,-100.00,NW,317,11.0,20.0,60,0.00,,,0.00,,,2013-08-30 18:12:00,
2013-08-30 13:22:00,88.0,72.0,-100.00,NW,317,11.0,20.0,60,0.00,,,0.00,,,2013-08-30 18:22:00,
2013-08-30 13:32:00,88.0,72.0,-100.00,NW,317,11.0,20.0,60,0.00,,,0.00,,,2013-08-30 18:32:00,
2013-08-30 13:42:00,88.0,72.0,-100.00,NW,317,11.0,20.0,60,0.00,,,0.00,,,2013-08-30 18:42:00,
2013-08-30 14:12:00,91.0,71.0,-100.00,NNW,334,9.0,17.0,53,0.00,,,0.00,,,2013-08-30 19:12:00,
2013-08-30 14:22:00,91.0,71.0,-100.00,NNW,334,9.0,17.0,53,0.00,,,0.00,,,2013-08-30 19:22:00,
2013-08-30 14:32:00,91.0,71.0,-100.00,NNW,334,9.0,17.0,53,0.00,,,0.00,,,2013-08-30 19:32:00,
2013-08-30 14:42:00,91.0,71.0,-100.00,NNW,334,9.0,17.0,53,0.00,,,0.00,,,2013-08-30 19:42:00,
2013-08-30 15:12:00,89.0,70.0,-100.00,North,352,10.0,20.0,53,0.00,,,0.00,560.000000,,2013-08-30 20:12:00,
2013-08-30 15:22:00,89.0,70.0,-100.00,North,352,10.0,20.0,53,0.00,,,0.00,560.000000,,2013-08-30 20:22:00,
2013-08-30 15:32:00,89.0,70.0,-100.00,North,352,10.0,20.0,53,0.00,,,0.00,560.000000,,2013-08-30 20:32:00,
2013-08-30 15:43:00,89.0,70.0,-100.00,North,352,10.0,20.0,53,0.00,,,0.00,560.000000,,2013-08-30 20:43:00,
2013-08-30 16:11:00,91.0,67.0,-100.00,North,353,9.0,23.0,45,0.00,,,0.00,699.000000,,2013-08-30 21:11:00,
2013-08-30 16:22:00,91.0,67.0,-100.00,North,353,9.0,23.0,45,0.00,,,0.00,699.000000,,2013-08-30 21:22:00,
2013-08-30 16:34:00,91.0,67.0,-100.00,North,353,9.0,23.0,45,0.00,,,0.00,699.000000,,2013-08-30 21:34:00,
2013-08-30 16:44:00,91.0,67.0,-100.00,North,353,9.0,23.0,45,0.00,,,0.00,699.000000,,2013-08-30 21:44:00,
2013-08-30 17:13:00,90.0,65.0,-100.00,NNW,344,10.0,19.0,44,0.00,,,0.00,,,2013-08-30 22:13:00,
2013-08-30 17:24:00,90.0,65.0,-100.00,NNW,344,10.0,19.0,44,0.00,,,0.00,,,2013-08-30 22:24:00,
2013-08-30 17:33:00,90.0,65.0,-100.00,NNW,344,10.0,19.0,44,0.00,,,0.00,,,2013-08-30 22:33:00,
2013-08-30 17:43:00,90.0,65.0,-100.00,NNW,344,10.0,19.0,44,0.00,,,0.00,,,2013-08-30 22:43:00,
2013-08-30 18:12:00,87.0,65.0,-100.00,NNE,15,6.0,14.0,49,0.00,,,0.00,,,2013-08-30 23:12:00,
2013-08-30 18:22:00,87.0,65.0,-100.00,NNE,15,6.0,14.0,49,0.00,,,0.00,,,2013-08-30 23:22:00,
2013-08-30 18:33:00,87.0,65.0,-100.00,NNE,15,6.0,14.0,49,0.00,,,0.00,,,2013-08-30 23:33:00,
2013-08-30 18:42:00,87.0,65.0,-100.00,NNE,15,6.0,14.0,49,0.00,,,0.00,,,2013-08-30 23:42:00,
2013-08-30 19:11:00,84.0,66.0,-100.00,North,7,5.0,15.0,54,0.00,,,0.00,,,2013-08-31 00:11:00,
2013-08-30 19:22:00,84.0,66.0,-100.00,North,7,5.0,15.0,54,0.00,,,0.00,,,2013-08-31 00:22:00,
2013-08-30 19:32:00,84.0,66.0,-100.00,North,7,5.0,15.0,54,0.00,,,0.00,,,2013-08-31 00:32:00,
2013-08-30 19:42:00,84.0,66.0,-100.00,North,7,5.0,15.0,54,0.00,,,0.00,,,2013-08-31 00:42:00,
2013-08-30 20:11:00,79.0,65.0,-100.00,North,360,3.0,9.0,63,0.00,,,0.00,,,2013-08-31 01:11:00,
2013-08-30 20:22:00,79.0,65.0,-100.00,North,360,3.0,9.0,63,0.00,,,0.00,,,2013-08-31 01:22:00,
2013-08-30 20:32:00,79.0,65.0,-100.00,North,360,3.0,9.0,63,0.00,,,0.00,,,2013-08-31 01:32:00,
2013-08-30 20:42:00,79.0,65.0,-100.00,North,360,3.0,9.0,63,0.00,,,0.00,,,2013-08-31 01:42:00,
2013-08-30 21:12:00,76.0,65.0,-100.00,NE,44,4.0,9.0,68,0.00,,,0.00,,,2013-08-31 02:12:00,
2013-08-30 21:22:00,76.0,65.0,-100.00,NE,44,4.0,9.0,68,0.00,,,0.00,,,2013-08-31 02:22:00,
2013-08-30 21:32:00,76.0,65.0,-100.00,NE,44,4.0,9.0,68,0.00,,,0.00,,,2013-08-31 02:32:00,
2013-08-30 21:42:00,76.0,65.0,-100.00,NE,44,4.0,9.0,68,0.00,,,0.00,,,2013-08-31 02:42:00,
2013-08-30 22:12:00,76.0,64.0,-100.00,East,79,5.0,12.0,67,0.00,,,0.00,,,2013-08-31 03:12:00,
2013-08-30 22:22:00,76.0,64.0,-100.00,East,79,5.0,12.0,67,0.00,,,0.00,,,2013-08-31 03:22:00,
2013-08-30 22:34:00,76.0,64.0,-100.00,East,79,5.0,12.0,67,0.00,,,0.00,,,2013-08-31 03:34:00,
2013-08-30 22:44:00,76.0,64.0,-100.00,East,79,5.0,12.0,67,0.00,,,0.00,,,2013-08-31 03:44:00,
2013-08-30 23:14:00,73.0,63.0,-100.00,ENE,74,6.0,13.0,71,0.00,,,0.00,,,2013-08-31 04:14:00,
2013-08-30 23:24:00,73.0,63.0,-100.00,ENE,74,6.0,13.0,71,0.00,,,0.00,,,2013-08-31 04:24:00,
2013-08-30 23:34:00,73.0,63.0,-100.00,ENE,74,6.0,13.0,71,0.00,,,0.00,,,2013-08-31 04:34:00,
2013-08-30 23:44:00,73.0,63.0,-100.00,ENE,74,6.0,13.0,71,0.00,,,0.00,,,2013-08-31 04:44:00,